Time,TemperatureF,DewpointF,PressureIn,WindDirection,WindDirectionDegrees,WindSpeedMPH,WindSpeedGustMPH,Humidity,HourlyPrecipIn,Conditions,Clouds,dailyrainin,SoftwareType,DateUTC
2013-12-24 00:11:00,62.6,59.0,29.96,NNW,337,1.6,-999.0,88,-99.99,,,0.00,Acu-Link.com,2013-12-24 05:11:00,
2013-12-24 00:26:00,61.9,58.3,29.96,WSW,247,1.6,-999.0,88,-99.99,,,0.00,Acu-Link.com,2013-12-24 05:26:00,
2013-12-24 00:41:00,61.3,57.8,29.96,West,270,1.6,-999.0,88,-99.99,,,0.00,Acu-Link.com,2013-12-24 05:41:00,
2013-12-24 00:57:00,60.8,57.2,29.97,SW,225,2.7,-999.0,88,-99.99,,,0.00,Acu-Link.com,2013-12-24 05:57:00,
2013-12-24 01:12:00,60.3,56.7,29.97,West,270,3.1,-999.0,88,-99.99,,,0.00,Acu-Link.com,2013-12-24 06:12:00,
2013-12-24 01:27:00,60.1,56.5,29.96,WNW,292,1.6,-999.0,88,-99.99,,,0.00,Acu-Link.com,2013-12-24 06:27:00,
2013-12-24 01:43:00,60.1,56.5,29.97,WNW,292,0.0,-999.0,88,-99.99,,,0.00,Acu-Link.com,2013-12-24 06:43:00,
2013-12-24 01:58:00,59.5,56.0,29.98,WNW,292,2.2,-999.0,88,-99.99,,,0.00,Acu-Link.com,2013-12-24 06:58:00,
2013-12-24 02:13:00,59.4,56.1,29.97,WSW,247,1.6,-999.0,89,-99.99,,,0.00,Acu-Link.com,2013-12-24 07:13:00,
2013-12-24 02:28:00,59.4,56.1,29.97,NNW,337,0.0,-999.0,89,-99.99,,,0.00,Acu-Link.com,2013-12-24 07:28:00,
2013-12-24 02:44:00,59.2,55.9,29.98,West,270,0.0,-999.0,89,-99.99,,,0.00,Acu-Link.com,2013-12-24 07:44:00,
2013-12-24 02:59:00,59.2,55.6,29.98,SW,225,1.1,-999.0,88,-99.99,,,0.00,Acu-Link.com,2013-12-24 07:59:00,
2013-12-24 03:14:00,59.0,55.4,29.98,West,270,0.0,-999.0,88,-99.99,,,0.00,Acu-Link.com,2013-12-24 08:14:00,
2013-12-24 03:29:00,59.0,55.8,29.98,West,270,2.2,-999.0,89,-99.99,,,0.00,Acu-Link.com,2013-12-24 08:29:00,
2013-12-24 03:44:00,58.6,55.7,29.98,NW,315,1.6,-999.0,90,-99.99,,,0.00,Acu-Link.com,2013-12-24 08:44:00,
2013-12-24 04:00:00,58.3,55.4,29.99,NNW,337,1.1,-999.0,90,-99.99,,,0.00,Acu-Link.com,2013-12-24 09:00:00,
2013-12-24 04:15:00,58.3,55.4,29.99,NNW,337,1.6,-999.0,90,-99.99,,,0.00,Acu-Link.com,2013-12-24 09:15:00,
2013-12-24 04:30:00,58.3,55.7,29.99,WNW,292,1.6,-999.0,91,-99.99,,,0.00,Acu-Link.com,2013-12-24 09:30:00,
2013-12-24 04:46:00,58.1,55.5,30.00,NE,45,1.6,-999.0,91,-99.99,,,0.00,Acu-Link.com,2013-12-24 09:46:00,
2013-12-24 05:01:00,57.7,55.1,29.99,WNW,292,2.7,-999.0,91,-99.99,,,0.00,Acu-Link.com,2013-12-24 10:01:00,
2013-12-24 05:16:00,57.4,54.5,30.00,West,270,0.0,-999.0,90,-99.99,,,0.00,Acu-Link.com,2013-12-24 10:16:00,
2013-12-24 05:31:00,57.2,54.3,30.00,WNW,292,2.7,-999.0,90,-99.99,,,0.00,Acu-Link.com,2013-12-24 10:31:00,
2013-12-24 05:47:00,56.3,53.1,30.01,West,270,2.7,-999.0,89,-99.99,,,0.00,Acu-Link.com,2013-12-24 10:47:00,
2013-12-24 06:02:00,55.8,52.6,30.03,West,270,2.2,-999.0,89,-99.99,,,0.00,Acu-Link.com,2013-12-24 11:02:00,
2013-12-24 06:17:00,55.2,52.0,30.04,SW,225,4.7,-999.0,89,-99.99,,,0.00,Acu-Link.com,2013-12-24 11:17:00,
2013-12-24 06:32:00,54.3,50.8,30.04,SW,225,2.7,-999.0,88,-99.99,,,0.00,Acu-Link.com,2013-12-24 11:32:00,
2013-12-24 06:48:00,53.1,49.0,30.05,SW,225,3.1,-999.0,86,-99.99,,,0.00,Acu-Link.com,2013-12-24 11:48:00,
2013-12-24 07:03:00,52.7,48.6,30.07,NW,315,2.7,-999.0,86,-99.99,,,0.00,Acu-Link.com,2013-12-24 12:03:00,
2013-12-24 07:18:00,51.8,47.7,30.07,NNW,337,3.1,-999.0,86,-99.99,,,0.00,Acu-Link.com,2013-12-24 12:18:00,
2013-12-24 07:34:00,51.1,47.0,30.08,WNW,292,2.2,-999.0,86,-99.99,,,0.00,Acu-Link.com,2013-12-24 12:34:00,
2013-12-24 07:49:00,50.4,46.3,30.08,NNW,337,2.7,-999.0,86,-99.99,,,0.00,Acu-Link.com,2013-12-24 12:49:00,
2013-12-24 08:04:00,49.6,45.3,30.10,NW,315,2.7,-999.0,85,-99.99,,,0.00,Acu-Link.com,2013-12-24 13:04:00,
2013-12-24 08:19:00,50.9,46.2,30.10,WNW,292,2.2,-999.0,84,-99.99,,,0.00,Acu-Link.com,2013-12-24 13:19:00,
2013-12-24 08:35:00,51.3,45.3,30.11,West,270,1.6,-999.0,80,-99.99,,,0.00,Acu-Link.com,2013-12-24 13:35:00,
2013-12-24 08:50:00,51.3,45.3,30.12,NW,315,2.7,-999.0,80,-99.99,,,0.00,Acu-Link.com,2013-12-24 13:50:00,
2013-12-24 09:05:00,50.9,44.6,30.13,West,270,1.6,-999.0,79,-99.99,,,0.00,Acu-Link.com,2013-12-24 14:05:00,
2013-12-24 09:20:00,51.8,44.8,30.12,WNW,292,2.2,-999.0,77,-99.99,,,0.00,Acu-Link.com,2013-12-24 14:20:00,
2013-12-24 09:36:00,52.0,45.0,30.13,SE,135,1.6,-999.0,77,-99.99,,,0.00,Acu-Link.com,2013-12-24 14:36:00,
2013-12-24 09:51:00,51.8,44.5,30.13,NW,315,2.7,-999.0,76,-99.99,,,0.00,Acu-Link.com,2013-12-24 14:51:00,
2013-12-24 10:06:00,55.0,44.7,30.14,NNW,337,2.7,-999.0,68,-99.99,,,0.00,Acu-Link.com,2013-12-24 15:06:00,
2013-12-24 10:21:00,53.2,44.1,30.13,NNW,337,2.2,-999.0,71,-99.99,,,0.00,Acu-Link.com,2013-12-24 15:21:00,
2013-12-24 10:37:00,55.4,44.6,30.14,West,270,1.1,-999.0,67,-99.99,,,0.00,Acu-Link.com,2013-12-24 15:37:00,
2013-12-24 10:52:00,53.6,42.1,30.15,NW,315,3.8,-999.0,65,-99.99,,,0.00,Acu-Link.com,2013-12-24 15:52:00,
2013-12-24 11:07:00,56.7,42.5,30.14,South,180,2.2,-999.0,59,-99.99,,,0.00,Acu-Link.com,2013-12-24 16:07:00,
2013-12-24 11:22:00,57.0,41.9,30.14,NNW,337,2.7,-999.0,57,-99.99,,,0.00,Acu-Link.com,2013-12-24 16:22:00,
2013-12-24 11:38:00,57.2,41.2,30.13,WNW,292,1.1,-999.0,55,-99.99,,,0.00,Acu-Link.com,2013-12-24 16:38:00,
2013-12-24 11:53:00,57.0,40.5,30.13,West,270,2.7,-999.0,54,-99.99,,,0.00,Acu-Link.com,2013-12-24 16:53:00,
2013-12-24 12:08:00,57.0,41.0,30.13,NNW,337,3.1,-999.0,55,-99.99,,,0.00,Acu-Link.com,2013-12-24 17:08:00,
2013-12-24 12:23:00,57.0,39.6,30.12,SW,225,3.1,-999.0,52,-99.99,,,0.00,Acu-Link.com,2013-12-24 17:23:00,
2013-12-24 12:38:00,57.4,37.3,30.10,NNE,22,3.8,-999.0,47,-99.99,,,0.00,Acu-Link.com,2013-12-24 17:38:00,
2013-12-24 12:54:00,57.7,37.1,30.10,SE,135,2.2,-999.0,46,-99.99,,,0.00,Acu-Link.com,2013-12-24 17:54:00,
2013-12-24 13:09:00,58.1,37.4,30.10,West,270,3.1,-999.0,46,-99.99,,,0.00,Acu-Link.com,2013-12-24 18:09:00,
2013-12-24 13:24:00,58.3,38.1,30.10,WNW,292,3.1,-999.0,47,-99.99,,,0.00,Acu-Link.com,2013-12-24 18:24:00,
2013-12-24 13:39:00,59.2,39.0,30.09,ESE,112,1.1,-999.0,47,-99.99,,,0.00,Acu-Link.com,2013-12-24 18:39:00,
2013-12-24 13:55:00,59.5,38.7,30.08,WNW,292,2.2,-999.0,46,-99.99,,,0.00,Acu-Link.com,2013-12-24 18:55:00,
2013-12-24 14:10:00,60.3,38.8,30.08,West,270,1.6,-999.0,45,-99.99,,,0.00,Acu-Link.com,2013-12-24 19:10:00,
2013-12-24 14:25:00,60.4,38.4,30.07,North,0,1.6,-999.0,44,-99.99,,,0.00,Acu-Link.com,2013-12-24 19:25:00,
2013-12-24 14:41:00,60.6,38.6,30.07,WSW,247,2.2,-999.0,44,-99.99,,,0.00,Acu-Link.com,2013-12-24 19:41:00,
2013-12-24 14:56:00,61.0,37.1,30.07,SSE,157,0.0,-999.0,41,-99.99,,,0.00,Acu-Link.com,2013-12-24 19:56:00,
2013-12-24 15:11:00,63.0,37.0,30.07,WNW,292,0.0,-999.0,38,-99.99,,,0.00,Acu-Link.com,2013-12-24 20:11:00,
2013-12-24 15:26:00,60.6,38.0,30.07,WSW,247,0.0,-999.0,43,-99.99,,,0.00,Acu-Link.com,2013-12-24 20:26:00,
2013-12-24 15:42:00,58.6,38.5,30.07,SW,225,0.0,-999.0,47,-99.99,,,0.00,Acu-Link.com,2013-12-24 20:42:00,
2013-12-24 15:57:00,60.4,38.4,30.08,South,180,0.0,-999.0,44,-99.99,,,0.00,Acu-Link.com,2013-12-24 20:57:00,
2013-12-24 16:12:00,59.4,37.4,30.07,WNW,292,1.1,-999.0,44,-99.99,,,0.00,Acu-Link.com,2013-12-24 21:12:00,
2013-12-24 16:27:00,58.5,38.3,30.08,East,90,0.0,-999.0,47,-99.99,,,0.00,Acu-Link.com,2013-12-24 21:27:00,
2013-12-24 16:42:00,57.7,38.7,30.08,South,180,0.0,-999.0,49,-99.99,,,0.00,Acu-Link.com,2013-12-24 21:42:00,
2013-12-24 16:58:00,56.7,38.2,30.08,NNW,337,2.2,-999.0,50,-99.99,,,0.00,Acu-Link.com,2013-12-24 21:58:00,
2013-12-24 17:13:00,55.9,37.1,30.09,SSE,157,0.0,-999.0,49,-99.99,,,0.00,Acu-Link.com,2013-12-24 22:13:00,
2013-12-24 17:28:00,55.0,38.7,30.10,ENE,67,0.0,-999.0,54,-99.99,,,0.00,Acu-Link.com,2013-12-24 22:28:00,
2013-12-24 17:44:00,53.8,39.8,30.10,NE,45,0.0,-999.0,59,-99.99,,,0.00,Acu-Link.com,2013-12-24 22:44:00,
2013-12-24 17:59:00,52.2,39.5,30.10,ENE,67,0.0,-999.0,62,-99.99,,,0.00,Acu-Link.com,2013-12-24 22:59:00,
2013-12-24 18:14:00,50.9,40.3,30.10,ENE,67,0.0,-999.0,67,-99.99,,,0.00,Acu-Link.com,2013-12-24 23:14:00,
2013-12-24 18:29:00,49.6,39.9,30.11,ENE,67,0.0,-999.0,69,-99.99,,,0.00,Acu-Link.com,2013-12-24 23:29:00,
2013-12-24 18:45:00,48.6,40.7,30.11,ENE,67,0.0,-999.0,74,-99.99,,,0.00,Acu-Link.com,2013-12-24 23:45:00,
2013-12-24 19:00:00,47.7,40.5,30.12,ENE,67,0.0,-999.0,76,-99.99,,,0.00,Acu-Link.com,2013-12-25 00:00:00,
2013-12-24 19:15:00,46.8,39.6,30.13,ENE,67,0.0,-999.0,76,-99.99,,,0.00,Acu-Link.com,2013-12-25 00:15:00,
2013-12-24 19:30:00,46.0,39.2,30.13,ENE,67,0.0,-999.0,77,-99.99,,,0.00,Acu-Link.com,2013-12-25 00:30:00,
2013-12-24 19:46:00,45.5,39.4,30.13,ENE,67,0.0,-999.0,79,-99.99,,,0.00,Acu-Link.com,2013-12-25 00:46:00,
2013-12-24 20:01:00,44.8,39.6,30.13,ENE,67,0.0,-999.0,82,-99.99,,,0.00,Acu-Link.com,2013-12-25 01:01:00,
2013-12-24 20:16:00,44.2,39.7,30.14,ENE,67,0.0,-999.0,84,-99.99,,,0.00,Acu-Link.com,2013-12-25 01:16:00,
2013-12-24 20:32:00,43.9,39.7,30.14,ENE,67,0.0,-999.0,85,-99.99,,,0.00,Acu-Link.com,2013-12-25 01:32:00,
2013-12-24 20:47:00,43.5,39.9,30.14,ENE,67,0.0,-999.0,87,-99.99,,,0.00,Acu-Link.com,2013-12-25 01:47:00,
2013-12-24 21:02:00,43.0,39.4,30.14,ENE,67,0.0,-999.0,87,-99.99,,,0.00,Acu-Link.com,2013-12-25 02:02:00,
2013-12-24 21:17:00,42.4,38.6,30.14,ENE,67,0.0,-999.0,86,-99.99,,,0.00,Acu-Link.com,2013-12-25 02:17:00,
2013-12-24 21:32:00,41.7,38.1,30.14,ENE,67,0.0,-999.0,87,-99.99,,,0.00,Acu-Link.com,2013-12-25 02:32:00,
2013-12-24 21:48:00,41.4,37.8,30.14,ENE,67,0.0,-999.0,87,-99.99,,,0.00,Acu-Link.com,2013-12-25 02:48:00,
2013-12-24 22:03:00,41.2,37.6,30.15,ENE,67,0.0,-999.0,87,-99.99,,,0.00,Acu-Link.com,2013-12-25 03:03:00,
2013-12-24 22:18:00,40.8,37.3,30.15,ENE,67,0.0,-999.0,87,-99.99,,,0.00,Acu-Link.com,2013-12-25 03:18:00,
2013-12-24 22:34:00,40.8,37.5,30.15,ENE,67,0.0,-999.0,88,-99.99,,,0.00,Acu-Link.com,2013-12-25 03:34:00,
2013-12-24 22:49:00,40.6,37.4,30.15,ENE,67,0.0,-999.0,88,-99.99,,,0.00,Acu-Link.com,2013-12-25 03:49:00,
2013-12-24 23:04:00,40.5,37.2,30.16,ENE,67,0.0,-999.0,88,-99.99,,,0.00,Acu-Link.com,2013-12-25 04:04:00,
2013-12-24 23:19:00,40.5,37.5,30.15,ENE,67,0.0,-999.0,89,-99.99,,,0.00,Acu-Link.com,2013-12-25 04:19:00,
2013-12-24 23:35:00,40.1,37.1,30.15,ENE,67,0.0,-999.0,89,-99.99,,,0.00,Acu-Link.com,2013-12-25 04:35:00,
2013-12-24 23:50:00,39.9,37.2,30.15,ENE,67,0.0,-999.0,90,-99.99,,,0.00,Acu-Link.com,2013-12-25 04:50:00,